SJ-11-02

Satellite information

Favourite Embed

Satellite Type and Status

PAYLOADIN ORBIT

Key statistics

Satellite SJ-11-02 at a glance.

Uptime

5091

Days in orbit

Revolutions

≈ 14.6

Per day

Orbit

SSO

Sun Synchronous Orbit

Inclination

98.3

Latest

Satellite identification and parameters

Extended collection of information and parameters for SJ-11-02.

Object identification

Identified? True

Debris? False

Object name: SJ-11-02

International designator: 2011-039A

Object number (NORAD): 37765

Object ID (CCSDS): 37765

Country: PEOPLES REPUBLIC OF CHINA (PRC)

Current information (Y/N): Y

RCS size: LARGE

Orbital parameters

Period: 98.366 minutes

Inclination: 98.3062 deg

SMA: 7058.68 km

Apoapsis: 687.123 km

Periapsis: 673.967 km

RAAN: 69.6694 deg

Eccentricy: 0.0009319

Argument of periapsis: 268.9529 deg

Mean anomaly: 144.6616 deg

Mean motion: 14.6392051 rev/day

Mean motion (dot): 0.00000334 rev/day2

B* drag term: 0.000073342 1/REarth

Two-line elements (TLE)

Creation date: July 5, 2025, 5:45 p.m.

Reference frame: TEME

Reference center: EARTH

Epoch: July 5, 2025, 3:22 p.m. UTC

TLE line 0: 0 SJ-11-02

TLE line 1: 1 37765U 11039A 25186.64064436 .00000334 00000-0 73342-4 0 9990

TLE line 2: 2 37765 98.3062 69.6694 0009319 268.9529 144.6616 14.63920510743240

Live tracking on map

Real-time ground track for satellite SJ-11-02.

In-orbit conjunctions

There are no conjunctions computed for SJ-11-02, at the moment. Check back to stay up to date, as we update our databases every day.

Go to all conjunctions

Associated space launch

SJ-11-02 was lifted into orbit during the mission ‘Long March 2C | Shijian 10-02’, on board a Long March 2 space rocket.

The launch took place on July 29, 2011, 7:42 a.m. from Launch Area 4 (SLS-2 / 603).

For more information about the launch, click the button.

Launch to space Long March 2C | Shijian 10-02
Long March 2C | Shijian 10-02

Agency: N/A

Status: Launch Successful

Launch date: July 29, 2011, 7:42 a.m. UTC

Rocket: Long March 2

Launch pad: Launch Area 4 (SLS-2 / 603)

Location: Jiuquan Satellite Launch Center, People's Republic of China

...

Latest news about this satellite

There are no fresh news available about this satellite. Check back as we update our databases every day.


Newsletter sign-up

Weekly statistics, charts and insights to help you stay on top of the space industry.